Date,TemperatureHighF,TemperatureAvgF,TemperatureLowF,DewpointHighF,DewpointAvgF,DewpointLowF,HumidityHigh,HumidityAvg,HumidityLow,PressureMaxIn,PressureMinIn,WindSpeedMaxMPH,WindSpeedAvgMPH,GustSpeedMaxMPH,PrecipitationSumIn
2013-9-1,73,71,68,-100,-100,-100,0,0,100,0.00,40.00,0,-999,0,0.00
2013-9-2,66,60,52,-100,-100,-100,0,0,100,0.00,40.00,0,-999,0,0.00
2013-9-3,77,62,46,-100,-100,-100,0,0,100,0.00,40.00,0,-999,0,0.00
2013-9-4,84,73,57,-100,-100,-100,0,0,100,0.00,40.00,0,-999,0,0.00
2013-9-5,84,72,64,-100,-100,-100,0,0,100,0.00,40.00,0,-999,0,0.00
2013-9-6,86,74,64,-100,-100,-100,0,0,100,0.00,40.00,0,-999,0,0.00
2013-9-7,91,77,66,-100,-100,-100,0,0,100,0.00,40.00,0,-999,0,0.00
2013-9-8,77,71,68,-100,-100,-100,0,0,100,0.00,40.00,0,-999,0,0.00
2013-9-9,95,75,66,-100,-100,-100,0,0,100,0.00,40.00,0,-999,0,0.00
2013-9-10,86,75,64,-100,-100,-100,0,0,100,0.00,40.00,0,-999,0,0.00
2013-9-11,79,72,64,-100,-100,-100,0,0,100,0.00,40.00,0,-999,0,0.00
2013-9-12,70,64,55,-100,-100,-100,0,0,100,0.00,40.00,0,-999,0,0.00
2013-9-13,70,58,46,-100,-100,-100,0,0,100,0.00,40.00,0,-999,0,0.00
2013-9-14,73,57,45,-100,-100,-100,0,0,100,0.00,40.00,0,-999,0,0.00
2013-9-15,61,57,54,-100,-100,-100,0,0,100,0.00,40.00,0,-999,0,0.00
2013-9-16,66,52,45,-100,-100,-100,0,0,100,0.00,40.00,0,-999,0,0.00
2013-9-17,59,53,46,-100,-100,-100,0,0,100,0.00,40.00,0,-999,0,0.00
2013-9-18,63,62,61,-100,-100,-100,0,0,100,0.00,40.00,0,-999,0,0.00
2013-9-19,81,73,66,-100,-100,-100,0,0,100,0.00,40.00,0,-999,0,0.00
2013-9-20,63,56,52,-100,-100,-100,0,0,100,0.00,40.00,0,-999,0,0.00
2013-9-21,66,55,43,-100,-100,-100,0,0,100,0.00,40.00,0,-999,0,0.00
2013-9-22,73,59,45,-100,-100,-100,0,0,100,0.00,40.00,0,-999,0,0.00
2013-9-23,72,58,48,-100,-100,-100,0,0,100,0.00,40.00,0,-999,0,0.00
2013-9-24,72,59,46,-100,-100,-100,0,0,100,0.00,40.00,0,-999,0,0.00
2013-9-25,72,59,46,-100,-100,-100,0,0,100,0.00,40.00,0,-999,0,0.00
2013-9-26,81,66,52,-100,-100,-100,0,0,100,0.00,40.00,0,-999,0,0.00
2013-9-27,82,73,63,-100,-100,-100,0,0,100,0.00,40.00,0,-999,0,0.00
2013-9-28,64,59,52,-100,-100,-100,0,0,100,0.00,40.00,0,-999,0,0.00
2013-9-29,73,58,41,-100,-100,-100,0,0,100,0.00,40.00,0,-999,0,0.00
2013-9-30,75,63,48,-100,-100,-100,0,0,100,0.00,40.00,0,-999,0,0.00